YO6IKB-10 Weather Reports


time (UTC)temp
F
wind
direction
speed
knots
gust
knots
rain 1hr
in
rain 24hr
in
rain mn
in
humidity
%
barometer
mb
20260504032555 45 292 0.0 0.9 0.00 0.00 0.00 68 1014.6
20260504032055 45 292 0.0 0.0 0.00 0.00 0.00 67 1014.6
20260504031555 45 292 0.0 0.0 0.00 0.00 0.00 67 1014.6
20260504031054 45 292 0.0 0.0 0.00 0.00 0.00 67 1014.5
20260504030554 45 292 0.0 0.0 0.00 0.00 0.00 68 1014.5
20260504030054 45 292 0.0 0.0 0.00 0.00 0.00 67 1014.5
20260504025554 45 292 0.0 0.0 0.00 0.00 0.00 67 1014.6
20260504025053 45 292 0.0 0.0 0.00 0.00 0.00 67 1014.7
20260504024553 45 292 0.0 0.0 0.00 0.00 0.00 66 1014.5
20260504024053 45 292 0.0 0.0 0.00 0.00 0.00 65 1014.6
20260504023552 45 292 0.0 0.0 0.00 0.00 0.00 65 1014.7
20260504023052 46 292 0.0 0.0 0.00 0.00 0.00 65 1014.7
20260504022552 46 292 0.0 0.0 0.00 0.00 0.00 65 1014.7
20260504022051 46 292 0.0 0.9 0.00 0.00 0.00 65 1014.7
20260504021551 46 315 0.0 0.0 0.00 0.00 0.00 65 1014.8
20260504021051 46 0 0.0 3.5 0.00 0.00 0.00 65 1014.8
20260504020551 46 292 0.0 4.3 0.00 0.00 0.00 64 1014.8
20260504020050 46 292 1.7 2.6 0.00 0.00 0.00 63 1014.7
20260504015550 46 292 0.0 1.7 0.00 0.00 0.00 63 1014.7
20260504015050 46 292 1.7 1.7 0.00 0.00 0.00 63 1014.7
20260504014549 46 292 0.9 2.6 0.00 0.00 0.00 63 1014.7
20260504014049 46 292 1.7 2.6 0.00 0.00 0.00 63 1014.7
20260504013549 47 292 0.0 4.3 0.00 0.00 0.00 63 1014.7
20260504013049 46 292 1.7 3.5 0.00 0.00 0.00 63 1014.6
20260504012548 46 292 1.7 4.3 0.00 0.00 0.00 62 1014.7
20260504012048 46 315 1.7 1.7 0.00 0.00 0.00 62 1014.7
20260504011548 46 315 0.0 2.6 0.00 0.00 0.00 62 1014.8
20260504011047 46 315 1.7 4.3 0.00 0.00 0.00 62 1014.5
20260504010547 47 292 0.9 3.5 0.00 0.00 0.00 62 1014.6
20260504010047 47 292 2.6 4.3 0.00 0.00 0.00 62 1014.5
20260504005547 47 292 0.0 1.7 0.00 0.00 0.00 62 1014.3
20260504005046 47 292 0.0 0.0 0.00 0.00 0.00 62 1014.3
20260504004546 47 292 0.0 0.0 0.00 0.00 0.00 62 1014.4
20260504004046 47 292 0.0 0.0 0.00 0.00 0.00 61 1014.4
20260504003545 47 292 0.0 0.0 0.00 0.00 0.00 61 1014.4
20260504003045 48 292 0.0 0.0 0.00 0.00 0.00 60 1014.3
20260504002545 48 292 0.0 0.0 0.00 0.00 0.00 59 1014.2
20260504002044 48 292 0.0 0.0 0.00 0.00 0.00 59 1014.2
20260504001544 48 292 0.0 0.0 0.00 0.00 0.00 58 1014.2
20260504001044 48 292 0.0 0.0 0.00 0.00 0.00 57 1014.3
20260504000544 49 292 0.0 0.9 0.00 0.00 0.00 56 1014.2
20260504000043 49 292 0.0 0.0 0.00 0.00 0.00 56 1014.1
20260503235543 49 292 0.0 0.0 0.00 0.00 0.00 56 1014.2
20260503235043 49 292 0.0 0.0 0.00 0.00 0.00 56 1014.1
20260503234542 49 292 0.0 0.0 0.00 0.00 0.00 56 1014.2
20260503234042 48 292 0.0 0.0 0.00 0.00 0.00 57 1014.1
20260503233542 48 292 0.0 0.0 0.00 0.00 0.00 57 1014.2
20260503233042 48 292 0.0 0.0 0.00 0.00 0.00 58 1014.2
20260503232541 49 292 0.0 0.0 0.00 0.00 0.00 58 1014.1
20260503232041 49 292 0.0 0.0 0.00 0.00 0.00 57 1014.2
20260503231541 49 292 0.0 0.0 0.00 0.00 0.00 57 1014.1
20260503231040 49 292 0.0 0.0 0.00 0.00 0.00 57 1014.2
20260503230540 49 292 0.0 0.0 0.00 0.00 0.00 57 1014.2
20260503230040 49 292 0.0 0.0 0.00 0.00 0.00 57 1014.2
20260503225540 49 292 0.0 0.0 0.00 0.00 0.00 57 1014.3
20260503225039 49 292 0.0 0.0 0.00 0.00 0.00 57 1014.3
20260503224539 49 292 0.0 0.0 0.00 0.00 0.00 57 1014.4
20260503224039 49 292 0.0 0.0 0.00 0.00 0.00 56 1014.4
20260503223538 49 292 0.0 0.9 0.00 0.00 0.00 56 1014.5
20260503223038 49 292 0.0 0.9 0.00 0.00 0.00 56 1014.5
20260503222538 49 292 0.0 0.0 0.00 0.00 0.00 55 1014.5
20260503222037 49 292 0.0 0.9 0.00 0.00 0.00 55 1014.6
20260503221537 49 292 0.0 0.0 0.00 0.00 0.00 55 1014.6
20260503221037 49 292 0.0 0.0 0.00 0.00 0.00 55 1014.6
20260503220537 49 292 0.0 0.0 0.00 0.00 0.00 54 1014.7
20260503220036 49 292 0.0 0.0 0.00 0.00 0.00 54 1014.7
20260503215536 49 292 0.0 0.0 0.00 0.00 0.00 54 1014.7
20260503215036 49 292 0.0 0.9 0.00 0.00 0.00 54 1014.8
20260503214535 49 292 0.0 0.9 0.00 0.00 0.00 53 1014.8
20260503214035 49 292 0.0 0.9 0.00 0.00 0.00 53 1015.0
20260503213535 49 292 0.0 1.7 0.00 0.00 0.00 53 1015.1
20260503213034 49 292 0.0 0.9 0.00 0.00 0.00 53 1015.0
20260503212534 49 292 0.0 3.5 0.00 0.00 0.00 52 1014.9
20260503212034 49 292 1.7 1.7 0.00 0.00 0.00 52 1014.9
20260503211534 49 292 0.0 0.0 0.00 0.00 0.00 52 1014.9
20260503211033 49 292 0.0 0.0 0.00 0.00 0.00 52 1014.9
20260503210533 50 292 0.0 1.7 0.00 0.00 0.00 52 1014.9
20260503210033 50 292 0.9 0.9 0.00 0.00 0.00 52 1014.9
20260503205533 50 292 0.9 1.7 0.00 0.00 0.00 51 1014.9
20260503205032 50 292 0.0 1.7 0.00 0.00 0.00 51 1014.9
20260503204532 50 292 0.9 1.7 0.00 0.00 0.00 51 1015.0
20260503204032 50 292 0.0 0.9 0.00 0.00 0.00 51 1015.0
20260503203531 50 292 0.0 0.9 0.00 0.00 0.00 50 1015.1
20260503203031 50 292 0.0 1.7 0.00 0.00 0.00 50 1015.1
20260503202531 51 292 0.0 2.6 0.00 0.00 0.00 50 1015.1
20260503202030 51 292 1.7 2.6 0.00 0.00 0.00 50 1015.0
20260503201530 51 292 1.7 1.7 0.00 0.00 0.00 50 1015.0
20260503201030 51 292 0.0 0.9 0.00 0.00 0.00 50 1015.1
20260503200530 51 292 0.0 0.0 0.00 0.00 0.00 49 1015.1
20260503200029 51 292 0.0 1.7 0.00 0.00 0.00 49 1015.1
20260503195529 51 292 0.9 1.7 0.00 0.00 0.00 49 1015.0
20260503195029 51 292 0.9 3.5 0.00 0.00 0.00 48 1015.1
20260503194528 51 292 1.7 3.5 0.00 0.00 0.00 48 1015.0
20260503194028 51 292 0.0 2.6 0.00 0.00 0.00 48 1015.1
20260503193528 51 292 1.7 1.7 0.00 0.00 0.00 48 1015.0
20260503193027 51 247 0.0 4.3 0.00 0.00 0.00 48 1014.9
20260503192527 51 292 0.0 1.7 0.00 0.00 0.00 48 1014.9
20260503192027 51 292 0.0 1.7 0.00 0.00 0.00 47 1014.9
20260503191527 52 225 0.9 1.7 0.00 0.00 0.00 47 1014.8
20260503191026 52 225 0.0 0.9 0.00 0.00 0.00 47 1014.8
20260503190526 52 225 0.0 0.9 0.00 0.00 0.00 47 1014.9
20260503190026 52 225 0.0 1.7 0.00 0.00 0.00 46 1014.7
20260503185525 52 225 0.0 1.7 0.00 0.00 0.00 45 1014.7
20260503185026 53 225 0.0 1.7 0.00 0.00 0.00 45 1014.7
20260503184525 53 225 0.0 3.5 0.00 0.00 0.00 45 1014.6
20260503184025 53 225 1.7 1.7 0.00 0.00 0.00 45 1014.6
20260503183524 54 202 0.0 5.2 0.00 0.00 0.00 45 1014.7
20260503183024 54 225 0.0 3.5 0.00 0.00 0.00 44 1014.7
20260503182524 54 225 2.6 6.1 0.00 0.00 0.00 44 1014.6
20260503182023 54 225 1.7 4.3 0.00 0.00 0.00 44 1014.5
20260503181523 54 247 2.6 2.6 0.00 0.00 0.00 45 1014.5
20260503181023 55 247 1.7 3.5 0.00 0.00 0.00 44 1014.5
20260503180523 55 225 1.7 2.6 0.00 0.00 0.00 44 1014.5
20260503180022 55 225 0.0 1.7 0.00 0.00 0.00 44 1014.5
20260503175522 55 225 1.7 3.5 0.00 0.00 0.00 44 1014.6
20260503175022 55 247 0.9 3.5 0.00 0.00 0.00 43 1014.5
20260503174521 56 247 0.9 4.3 0.00 0.00 0.00 43 1014.5
20260503174021 56 247 0.9 3.5 0.00 0.00 0.00 43 1014.4
20260503173521 56 247 1.7 5.2 0.00 0.00 0.00 42 1014.5
20260503173020 57 292 0.9 3.5 0.00 0.00 0.00 42 1014.5
20260503172520 57 292 1.7 5.2 0.00 0.00 0.00 42 1014.4
20260503172020 57 292 0.9 5.2 0.00 0.00 0.00 42 1014.4
20260503171520 58 247 0.0 4.3 0.00 0.00 0.00 42 1014.4
20260503171019 58 292 0.9 5.2 0.00 0.00 0.00 42 1014.4
20260503170519 58 292 0.9 3.5 0.00 0.00 0.00 43 1014.5
20260503151012 69 315 3.5 4.3 0.00 0.00 0.00 35 1014.9
20260503150512 68 292 1.7 3.5 0.00 0.00 0.00 36 1014.9
20260503131005 58 22 8.7 8.7 0.00 0.00 0.00 38 1016.3
20260503130505 58 112 0.0 6.1 0.00 0.00 0.00 37 1016.3
20260503110458 54 0 1.7 5.2 0.00 0.00 0.00 41 1017.6
20260503090451 56 315 0.0 1.7 0.00 0.00 0.00 48 1018.7
20260503081448 53 0 0.9 3.5 0.00 0.00 0.00 50 1018.9
20260503080948 54 45 0.9 3.5 0.00 0.00 0.00 50 1018.9
20260503080447 55 337 0.0 2.6 0.00 0.00 0.00 57 1019.0
20260503072445 52 0 0.0 1.7 0.00 0.00 0.00 62 1019.0
20260503071945 53 45 0.0 1.7 0.00 0.00 0.00 62 1018.9
20260503071444 53 292 0.0 1.7 0.00 0.00 0.00 67 1018.9
20260503070944 51 315 1.7 1.7 0.00 0.00 0.00 65 1018.9
20260503070444 51 22 0.0 1.7 0.00 0.00 0.00 64 1018.9
20260503054939 46 22 0.0 0.0 0.00 0.00 0.00 72 1019.0
20260503054439 45 0 0.0 0.9 0.00 0.00 0.00 74 1018.9
20260503053939 45 0 0.0 0.9 0.00 0.00 0.00 75 1019.0
20260503053439 44 0 0.0 0.0 0.00 0.00 0.00 77 1018.8
20260503052938 43 0 0.0 0.0 0.00 0.00 0.00 77 1018.9
20260503052438 42 0 0.0 0.0 0.00 0.00 0.00 78 1018.9
20260503051938 42 0 0.0 0.0 0.00 0.00 0.00 78 1018.9
20260503051437 42 0 0.0 0.9 0.00 0.00 0.00 79 1018.8
20260503050937 42 292 0.0 0.0 0.00 0.00 0.00 79 1018.8
20260503050437 42 292 0.0 0.0 0.00 0.00 0.00 80 1018.8
20260503045936 42 292 0.0 0.0 0.00 0.00 0.00 81 1018.8
20260503045436 41 292 0.0 0.0 0.00 0.00 0.00 81 1018.8
20260503044936 41 292 0.0 0.0 0.00 0.00 0.00 82 1018.8
20260503044436 41 292 0.0 0.0 0.00 0.00 0.00 82 1018.8
20260503043935 41 292 0.0 0.0 0.00 0.00 0.00 82 1018.7
20260503043435 41 292 0.0 0.0 0.00 0.00 0.00 83 1018.7
20260503042935 41 292 0.0 0.0 0.00 0.00 0.00 83 1018.7
20260503042434 40 292 0.0 0.0 0.00 0.00 0.00 84 1018.7
20260503041934 39 292 0.0 0.0 0.00 0.00 0.00 85 1018.6
20260503041434 39 292 0.0 0.0 0.00 0.00 0.00 85 1018.5
20260503040934 39 292 0.0 0.0 0.00 0.00 0.00 85 1018.5
20260503040433 39 292 0.0 0.0 0.00 0.00 0.00 86 1018.4
20260503035933 38 292 0.0 0.0 0.00 0.00 0.00 86 1018.4
20260503035433 37 292 0.0 0.0 0.00 0.00 0.00 87 1018.4
20260503034932 36 292 0.0 0.0 0.00 0.00 0.00 87 1018.4
20260503034432 35 292 0.0 0.0 0.00 0.00 0.00 87 1018.3
20260503033932 34 292 0.0 0.0 0.00 0.00 0.00 87 1018.3
20260503033432 33 292 0.0 0.0 0.00 0.00 0.00 87 1018.2
20260503032931 32 292 0.0 0.0 0.00 0.00 0.00 87 1018.2